Flag for U.S.A. Weather past 2 weeks in Irvine, California, U.S.A.

Now
67 °F

Clear.


Feels Like: 67 °F
Forecast: 48 / 83 °F
Wind: 5 mph from North

Location: John Wayne Airport-Orange County Airport

Current Time: Mar 5, 2015 at 10:56:07 PM

Latest Report: Mar 5, 2015 at 9:53 PM


Visibility: 10 mi

Pressure: 30.14 "Hg

Humidity: 15%

Dew point: 18 °F

Location of IrvineLocation

Historic Weather in Irvine — Graph

°F

Irvine temperature yesterday

Maximum temperature yesterday: 74 °F (at 2:53 PM)
Minimum temperature yesterday: 50 °F (at 4:53 AM)
Average temperature yesterday: 62 °F

Past Weeks' High & Low Weather Summary

 TemperatureHumidityPressure
High80 °F (Mar 5, 12:53 PM)88% (Feb 26, 6:02 AM)30.26 "Hg (Feb 26, 6:02 AM)
Low49 °F (Mar 5, 5:53 AM)9% (Mar 5, 11:53 AM)29.76 "Hg (Feb 27, 3:53 PM)
Average62 °F59%29.98 "Hg
* Reported Feb 18 8:53 PM — Mar 5 8:53 PM, Irvine, Weather by CustomWeather, © 2015

Note: Actual official high and low records may vary slightly from our data, if they occured in-between our weather recording intervals... More about our weather records

Advertising

Irvine weather history for previous 24 hours

 ConditionsComfort  
Time TempWeatherWind HumidityBarometerVisibility
8:53 PM
Thu, Mar 5
68 °FClear.3 mph16%30.15 "Hg10 mi
7:53 PM69 °FClear.3 mph22%30.16 "Hg10 mi
6:53 PM69 °FClear.No wind27%30.16 "Hg10 mi
5:53 PM71 °FClear.3 mph21%30.15 "Hg10 mi
4:53 PM74 °FSunny.5 mph16%30.15 "Hg10 mi
3:53 PM76 °FPassing clouds.9 mph15%30.15 "Hg10 mi
2:53 PM77 °FPassing clouds.10 mph16%30.16 "Hg10 mi
1:53 PM79 °FPassing clouds.8 mph13%30.17 "Hg10 mi
12:53 PM80 °FPassing clouds.7 mph10%30.19 "Hg10 mi
11:53 AM78 °FPassing clouds.No wind9%30.22 "Hg10 mi
10:53 AM76 °FPassing clouds.5 mph10%30.24 "Hg10 mi
9:53 AM73 °FPassing clouds.No wind17%30.25 "Hg10 mi
8:53 AM64 °FPassing clouds.No wind33%30.26 "Hg10 mi
7:53 AM59 °FPassing clouds.No wind36%30.24 "Hg10 mi
6:53 AM52 °FPassing clouds.No wind59%30.22 "Hg10 mi
5:53 AM49 °FPassing clouds.No wind64%30.20 "Hg10 mi
4:53 AM51 °FClear.No wind59%30.19 "Hg10 mi
3:53 AM52 °FClear.No wind59%30.16 "Hg10 mi
2:53 AM53 °FClear.No wind61%30.16 "Hg10 mi
1:53 AM54 °FClear.No wind64%30.16 "Hg10 mi
12:53 AM55 °FClear.5 mph62%30.16 "Hg10 mi
11:53 PM
Wed, Mar 4
58 °FClear.No wind60%30.15 "Hg10 mi
10:53 PM58 °FPassing clouds.No wind58%30.16 "Hg10 mi
Weather by CustomWeather, © 2015

See weather overviewHow to use our weather pages